This is the latest recevied weather packets stored in our database for station/object SV9TNF-52. If no packets are shown the sender has not sent any weather packets the latest 10 day(s).
| Time | Temp. | Humidity | Pressure | Rain* | Wind** | Luminosity | Snow |
|---|---|---|---|---|---|---|---|
| 1788148658 | 22.78° C | 78% | 1020.3 hPa | 0 mm | 4.47 m/s, 128° | - | - |
| 1788148358 | 22.78° C | 78% | 1020.3 hPa | 0 mm | 4.47 m/s, 233° | - | - |
| 1788148057 | 22.78° C | 77% | 1020.3 hPa | 0 mm | 4.92 m/s, 221° | - | - |
| 1788147758 | 22.78° C | 77% | 1020.3 hPa | 0 mm | 4.47 m/s, 260° | - | - |
| 1788147457 | 22.78° C | 77% | 1020.3 hPa | 0 mm | 3.58 m/s, 226° | - | - |
| 1788147157 | 22.78° C | 77% | 1020.3 hPa | 0 mm | 4.02 m/s, 183° | - | - |
| 1788146857 | 22.78° C | 76% | 1020.3 hPa | 0 mm | 4.92 m/s, 210° | - | - |
| 1788146557 | 22.78° C | 76% | 1020.3 hPa | 0 mm | 6.71 m/s, 184° | - | - |
| 1788146257 | 22.78° C | 75% | 1020.3 hPa | 0 mm | 4.47 m/s, 254° | - | - |
| 1788145957 | 22.78° C | 75% | 1020.3 hPa | 0 mm | 4.92 m/s, 271° | - | - |
| 1788145656 | 22.78° C | 75% | 1020.3 hPa | 0 mm | 3.58 m/s, 207° | - | - |
| 1788145357 | 22.78° C | 74% | 1020.3 hPa | 0 mm | 4.92 m/s, 202° | - | - |
| 1788145057 | 22.78° C | 74% | 1020.3 hPa | 0 mm | 4.92 m/s, 228° | - | - |
| 1788144756 | 22.78° C | 74% | 1020.3 hPa | 0 mm | 4.47 m/s, 250° | - | - |
| 1788144456 | 22.78° C | 74% | 1020.3 hPa | 0 mm | 4.02 m/s, 219° | - | - |
| 1788144156 | 22.78° C | 73% | 1020.3 hPa | 0 mm | 4.47 m/s, 229° | - | - |
| 1788143856 | 22.78° C | 72% | 1020.3 hPa | 0 mm | 4.92 m/s, 214° | - | - |
| 1788143556 | 22.78° C | 72% | 1020.3 hPa | 0 mm | 4.92 m/s, 228° | - | - |
| 1788143256 | 22.78° C | 72% | 1020.3 hPa | 0 mm | 4.02 m/s, 5° | - | - |
| 1788142956 | 22.78° C | 71% | 1020.7 hPa | 0 mm | 4.47 m/s, 205° | - | - |
| 1788142656 | 22.78° C | 71% | 1020.7 hPa | 0 mm | 4.02 m/s, 222° | - | - |
| 1788142355 | 22.78° C | 71% | 1020.7 hPa | 0 mm | 4.92 m/s, 192° | - | - |
| 1788142056 | 22.78° C | 71% | 1020.7 hPa | 0 mm | 3.13 m/s, 231° | - | - |
| 1788141755 | 22.78° C | 71% | 1020.7 hPa | 0 mm | 3.13 m/s, 244° | - | - |
| 1788141455 | 22.78° C | 70% | 1020.7 hPa | 0 mm | 5.36 m/s, 236° | - | - |
* Rain latest hour (hover to see other rain measurements)
** Current wind speed in m/s (hover to see current wind gust speed)